Starlink 11431

operational
NORAD ID: 62890 Int'l Des: 2025-024 Owner: SPXS Country: US Constellation: starlink
LEOCIRCULAR

About Starlink 11431

Description loading...

Live Position

Loading 3D Globe...

Upcoming Passes

Altitude History

Altitude vs Time

uPlot chart will show altitude changes over time

Two-Line Element Set

1 62890U 25024M 25259.58337963 .00039931 00000-0 31364-3 0 9990
2 62890 43.0009 151.3568 0001741 269.9918 289.6645 15.70805057 6047
Epoch: Sep 16, 2025 • Age: 9 hours

Current Status

Altitude 360.1 km
Velocity 7.70 km/s
Sub-Earth Point 40.24°N, 121.62°W
Launch Date Feb 4, 2025
Age 0.6 years
Type internet

Technical Details

Classification Payload
Mass 960.00 kg
Dry Mass 910.00 kg
Total Mass 960.00 kg
Length 0.30 m
Diameter 4.10 m
Span 29.00 m
Shape Box + pan
Manufacturer SPXS
Bus Type Starlink V2MD
Phase Status In Orbit
Owner/State SPXS/US

Large Constellations

Loading constellations...